Overview Statistics Trail Chart Weather Telemetry Raw packets
 

This is the latest recevied weather packets stored in our database for station/object YD1OCG-15. If no packets are shown the sender has not sent any weather packets the latest 10 day(s).

<< 10 11 12 13 14 15 16 >>
Time Temp. Humidity Pressure Rain* Wind** Luminosity Snow
1788049583 25.56° C 72% 1016 hPa - - - -
1788047784 25.56° C 72% 1016 hPa - - - -
1788045984 25° C 76% 1015 hPa - - - -
1788044183 25.56° C 78% 1015 hPa - - - -
1788042384 25° C 76% 1014 hPa - - - -
1788040584 25.56° C 77% 1015 hPa - - - -
1788038783 25.56° C 77% 1014 hPa - - - -
1788036983 26.11° C 77% 1014 hPa - - - -
1788035184 25.56° C 77% 1013 hPa - - - -
1788033383 26.11° C 76% 1014 hPa - - - -
1788031584 25.56° C 80% 1014 hPa - - - -
1788029784 26.11° C 77% 1014 hPa - - - -
1788027983 26.67° C 73% 1014 hPa - - - -
1788026184 26.67° C 73% 1014 hPa - - - -
1788024383 26.67° C 72% 1014 hPa - - - -
1788022583 27.22° C 71% 1015 hPa - - - -
1788020784 26.67° C 69% 1015 hPa - - - -
1788018984 27.22° C 72% 1015 hPa - - - -
1788017183 26.67° C 72% 1015 hPa - - - -
1788015384 27.22° C 73% 1016 hPa - - - -
1788013595 26.67° C 70% 1014 hPa - - - -
1788011784 27.22° C 72% 1015 hPa - - - -
1788009984 26.11° C 69% 1014 hPa - - - -
1788004589 26.67° C 65% 1014 hPa - - - -
1788002783 27.22° C 66% 1012 hPa - - - -

* Rain since midnight (hover to see other rain measurements)
** Current wind speed in m/s (hover to see current wind gust speed)